[[{"header":{"parameterUnit":"m.s-1","parameterCategory":1,"la1":30.2991,"la2":30.254,"lo1":-89.0895,"lo2":-89.0444,"dy":0.0017,"dx":0.0017,"nx":28,"ny":28,"refTime":"2024-04-19T09:00:00:Z","depth":0,"parameterNumber":2,"parameterNumberName":"U-component_of_WINDS"},"data":[0,0,0,0,0,0,0,0,0,0,0,0,0,0,0,0,0,0,0,0,0,0,0,0,0,0,0,0,0,0,0,0,0,0,0,0,0,0,0,0,0,0,0,0,0,0,0,0,0,0,0,0,0,0,0,0,0,0,-0.5423,-0.5422,0,-0.5367,-0.5367,-0.5366,-0.534,-0.534,-0.534,-0.534,-0.5283,-0.5282,-0.528,0,0,0,0,0,0,0,0,0,0,0,0,0,-0.5506,-0.5505,-0.5423,-0.5422,-0.5421,-0.5367,-0.5367,-0.5366,-0.534,-0.534,-0.534,-0.534,-0.5284,-0.5282,-0.528,0,0,0,0,0,0,0,0,0,0,0,0,0,-0.5462,-0.5504,-0.5423,-0.5402,-0.5399,-0.5368,-0.5367,-0.5366,-0.534,-0.534,-0.534,-0.534,-0.5284,-0.5282,-0.528,-0.5265,0,0,-0.5273,-0.5272,0,0,0,0,0,0,0,0,-0.5465,-0.5459,-0.5406,-0.5403,-0.54,-0.5361,-0.5375,-0.5332,-0.534,-0.5362,-0.534,-0.534,-0.5309,-0.5305,-0.5294,-0.5262,-0.526,-0.5273,-0.5271,-0.527,-0.527,0,0,0,0,0,0,0,-0.5468,-0.5461,-0.5401,-0.5405,-0.5402,-0.5395,-0.5389,-0.5367,-0.5336,-0.5361,-0.5358,-0.5352,-0.5308,-0.5296,-0.5293,-0.5259,-0.5273,-0.5271,-0.5269,-0.5268,-0.5211,-0.5211,0,0,0,0,0,0,-0.5474,-0.5464,-0.5402,-0.5399,-0.5433,-0.5394,-0.5387,-0.5373,-0.5336,-0.5331,-0.5352,-0.5351,-0.53,-0.5295,-0.5291,-0.527,-0.527,-0.5268,-0.5267,-0.5211,-0.5211,-0.5211,0,0,0,0,0,0,-0.5476,-0.5469,-0.5405,-0.5431,-0.5422,-0.5392,-0.5377,-0.5372,-0.5361,-0.533,-0.5325,-0.5347,-0.53,-0.5294,-0.5271,-0.5268,-0.5267,-0.5265,-0.5211,-0.5211,-0.5211,-0.5229,0,0,0,0,0,0,-0.5479,-0.547,-0.5464,-0.5431,-0.5421,-0.5386,-0.5377,-0.5371,-0.5357,-0.5355,-0.5323,-0.5318,-0.53,-0.5275,-0.5269,-0.5265,-0.5263,-0.5212,-0.5211,-0.5211,-0.5229,-0.523,-0.523,0,0,0,0,0,-0.5482,-0.5471,-0.5463,-0.5456,-0.5413,-0.5386,-0.5381,-0.536,-0.5357,-0.5351,-0.5331,-0.5319,-0.5269,-0.5273,-0.5266,-0.5261,-0.5212,-0.5211,-0.5211,-0.5228,-0.5229,-0.523,0,0,0,0,0,0,-0.5504,-0.5466,-0.5458,-0.5436,-0.5415,-0.5382,-0.5373,-0.5362,-0.534,-0.534,-0.5315,-0.5308,-0.5287,-0.5272,-0.5277,-0.5244,-0.5239,-0.5238,-0.5255,-0.5256,-0.5256,-0.526,-0.5261,0,0,0,0,0,-0.5507,-0.5488,-0.5456,-0.5441,-0.543,-0.5404,-0.5391,-0.5377,-0.5354,-0.5345,-0.5323,-0.5301,-0.528,-0.5267,-0.5246,-0.5227,-0.5219,-0.522,-0.522,-0.5221,-0.522,-0.5208,-0.5208,-0.521,-0.521,-0.521,0,0,-0.5512,-0.5489,-0.5479,-0.5445,-0.5426,-0.5408,-0.5396,-0.5377,-0.5363,-0.5342,-0.5319,-0.5303,-0.5276,-0.5255,-0.5244,-0.5241,-0.5218,-0.5221,-0.5222,-0.522,-0.5208,-0.5207,-0.5207,-0.521,-0.521,-0.521,0,0,-0.5511,-0.5492,-0.5477,-0.5459,-0.5431,-0.5413,-0.541,-0.5379,-0.5367,-0.5344,-0.5327,-0.531,-0.5275,-0.5257,-0.5243,-0.5235,-0.5224,-0.5229,-0.5233,-0.5222,-0.5222,-0.5222,-0.5219,-0.5218,-0.5228,-0.5228,-0.5228,0,-0.5521,-0.5492,-0.547,-0.5452,-0.5437,-0.5417,-0.5401,-0.5385,-0.5352,-0.5342,-0.5339,-0.5294,-0.5275,-0.5249,-0.5247,-0.5237,-0.5232,-0.5233,-0.5224,-0.5223,-0.5223,-0.5219,-0.5218,-0.5229,-0.5229,-0.5229,-0.5229,0,-0.5506,-0.5486,-0.5477,-0.5445,-0.543,-0.5413,-0.5388,-0.5375,-0.5362,-0.5345,-0.5321,-0.5298,-0.5272,-0.5265,-0.5252,-0.5237,-0.5235,-0.5228,-0.5223,-0.5224,-0.522,-0.5219,-0.523,-0.523,-0.523,-0.523,0,0,-0.5518,-0.5474,-0.5471,-0.5456,-0.5424,-0.5409,-0.5391,-0.5365,-0.5354,-0.5332,-0.5316,-0.5287,-0.528,-0.5265,-0.525,-0.524,-0.5235,-0.5234,-0.5233,-0.5235,-0.5216,-0.5222,-0.5221,-0.5227,-0.5227,-0.5227,-0.5218,0,-0.5513,-0.548,-0.5459,-0.5434,-0.5416,-0.5396,-0.538,-0.5359,-0.5342,-0.5324,-0.5306,-0.5285,-0.5278,-0.5269,-0.5258,-0.5238,-0.5231,-0.5238,-0.5212,-0.5212,-0.5219,-0.5219,-0.5225,-0.5218,-0.5217,-0.5217,-0.5217,0,-0.5502,-0.5481,-0.5454,-0.5423,-0.5415,-0.5401,-0.5376,-0.5359,-0.5334,-0.5323,-0.5305,-0.529,-0.527,-0.5267,-0.5239,-0.5245,-0.5233,-0.5221,-0.5221,-0.5217,-0.5214,-0.5215,-0.5215,-0.5214,-0.5214,-0.5215,-0.5215,0,-0.5514,-0.5478,-0.5457,-0.5445,-0.5409,-0.54,-0.5384,-0.536,-0.5345,-0.5323,-0.5314,-0.529,-0.5277,-0.5259,-0.5238,-0.5237,-0.5212,-0.5207,-0.5202,-0.5202,-0.5197,-0.5198,-0.5195,-0.519,-0.519,-0.519,-0.519,0,-0.551,-0.5494,-0.5461,-0.5448,-0.543,-0.5407,-0.539,-0.5373,-0.5351,-0.5334,-0.5316,-0.5301,-0.5274,-0.5256,-0.5239,-0.5218,-0.5213,-0.5203,-0.5199,-0.5204,-0.5206,-0.5196,-0.5196,-0.519,-0.519,-0.519,-0.519,0,-0.552,-0.5497,-0.5473,-0.5441,-0.5432,-0.542,-0.5393,-0.5379,-0.5362,-0.5341,-0.5335,-0.5307,-0.5285,-0.5262,-0.5231,-0.522,-0.52,-0.5194,-0.5208,-0.5206,-0.5202,-0.5202,-0.5192,-0.519,-0.5187,-0.5187,-0.5187,0,-0.5519,-0.5506,-0.5472,-0.546,-0.5445,-0.5425,-0.541,-0.5387,-0.5373,-0.5343,-0.5334,-0.5309,-0.5289,-0.5254,-0.5231,-0.5207,-0.5201,-0.5199,-0.5197,-0.5203,-0.52,-0.5201,-0.52,-0.52,-0.52,-0.52,-0.52,0,-0.5519,-0.5508,-0.5488,-0.5463,-0.5446,-0.5426,-0.5405,-0.5396,-0.5368,-0.5353,-0.533,-0.5314,-0.5282,-0.5259,-0.5233,-0.5217,-0.5204,-0.5201,-0.5198,-0.5204,-0.5213,-0.5208,-0.521,-0.5201,-0.5201,-0.5201,-0.5201,-0.5201,-0.5523,-0.5511,-0.5485,-0.5463,-0.5445,-0.5425,-0.5411,-0.5392,-0.5372,-0.5344,-0.5332,-0.5308,-0.5283,-0.5247,-0.5231,-0.5212,-0.5209,-0.5205,-0.5204,-0.5204,-0.5205,-0.5216,-0.5207,-0.5207,-0.5207,-0.5207,-0.5207,0,-0.5523,-0.5505,-0.5485,-0.5456,-0.5438,-0.5427,-0.5404,-0.539,-0.5369,-0.5347,-0.5327,-0.53,-0.5277,-0.5252,-0.5228,-0.5217,-0.5211,-0.5211,-0.5212,-0.5208,-0.5209,-0.5214,-0.5217,-0.5217,-0.5217,-0.5217,-0.5217,-0.5217,-0.552,-0.5499,-0.5485,-0.5454,-0.5437,-0.5413,-0.54,-0.5382,-0.5365,-0.5335,-0.5316,-0.53,-0.5277,-0.525,-0.5228,-0.5222,-0.5213,-0.5216,-0.5208,-0.5209,-0.5208,-0.5208,-0.5212,-0.5214,-0.5214,-0.5208,-0.5208,-0.5208]},{"header":{"parameterUnit":"m.s-1","parameterCategory":1,"la1":30.2991,"la2":30.254,"lo1":-89.0895,"lo2":-89.0444,"dy":0.0017,"dx":0.0017,"nx":28,"ny":28,"refTime":"2024-04-19T09:00:00:Z","depth":0,"parameterNumber":3,"parameterNumberName":"V-component_of_WINDS"},"data":[0,0,0,0,0,0,0,0,0,0,0,0,0,0,0,0,0,0,0,0,0,0,0,0,0,0,0,0,0,0,0,0,0,0,0,0,0,0,0,0,0,0,0,0,0,0,0,0,0,0,0,0,0,0,0,0,0,0,4.5297,4.5297,0,4.5311,4.5311,4.5311,4.5257,4.5255,4.5254,4.5252,4.5264,4.5266,4.5267,0,0,0,0,0,0,0,0,0,0,0,0,0,4.5221,4.5223,4.5297,4.5297,4.5297,4.5311,4.5311,4.5311,4.5257,4.5255,4.5253,4.5252,4.5263,4.5265,4.5268,0,0,0,0,0,0,0,0,0,0,0,0,0,4.5246,4.5223,4.5297,4.5272,4.527,4.5311,4.5311,4.5311,4.5258,4.5255,4.5253,4.5251,4.5263,4.5265,4.5268,4.5333,0,0,4.5276,4.5277,0,0,0,0,0,0,0,0,4.5245,4.5249,4.5276,4.5274,4.5272,4.528,4.5289,4.5318,4.5258,4.5262,4.5252,4.5249,4.5271,4.5273,4.5281,4.5333,4.5334,4.5276,4.5278,4.5279,4.528,0,0,0,0,0,0,0,4.5243,4.5248,4.5302,4.5276,4.5274,4.5259,4.526,4.5294,4.528,4.5262,4.5258,4.526,4.5269,4.5278,4.5281,4.5334,4.5276,4.5279,4.528,4.5281,4.544,4.5443,0,0,0,0,0,0,4.5245,4.5247,4.5302,4.5303,4.5252,4.5263,4.5264,4.528,4.5279,4.5277,4.5262,4.5258,4.5275,4.5277,4.5281,4.5357,4.5279,4.5282,4.5283,4.5438,4.5441,4.5444,0,0,0,0,0,0,4.5244,4.5251,4.5301,4.5274,4.5279,4.5267,4.5285,4.5281,4.529,4.528,4.5277,4.5274,4.5273,4.5277,4.532,4.5356,4.5283,4.5285,4.5435,4.5439,4.5442,4.5509,0,0,0,0,0,0,4.5242,4.5251,4.5275,4.5275,4.5281,4.5342,4.5287,4.5283,4.5295,4.5289,4.529,4.5288,4.5271,4.5317,4.5323,4.5359,4.5288,4.5431,4.5437,4.5441,4.5504,4.5515,4.5525,0,0,0,0,0,4.5239,4.5293,4.5277,4.5284,4.5312,4.5344,4.5347,4.5328,4.5298,4.5323,4.5316,4.5288,4.5352,4.5322,4.5328,4.5365,4.5429,4.5435,4.5441,4.5499,4.5513,4.5524,0,0,0,0,0,0,4.5297,4.5292,4.5275,4.533,4.5338,4.5335,4.5365,4.5343,4.5359,4.5352,4.5327,4.5328,4.5376,4.5375,4.5341,4.5428,4.5385,4.5393,4.5427,4.544,4.545,4.5449,4.529,0,0,0,0,0,4.5316,4.5343,4.5337,4.5387,4.5392,4.5378,4.5391,4.5376,4.5382,4.5385,4.5382,4.5389,4.541,4.5425,4.5444,4.5503,4.5503,4.5532,4.5543,4.5551,4.5558,4.559,4.5603,4.5463,4.5463,4.5463,0,0,4.5356,4.5357,4.5375,4.5398,4.5402,4.543,4.5381,4.5412,4.5433,4.5389,4.5431,4.5429,4.5435,4.5487,4.5509,4.5487,4.5597,4.5559,4.5566,4.5568,4.5597,4.561,4.5622,4.5467,4.5466,4.5466,0,0,4.5442,4.5446,4.5488,4.5493,4.5501,4.5492,4.5502,4.5502,4.55,4.5541,4.5509,4.5533,4.557,4.5576,4.5584,4.5674,4.5648,4.5681,4.5735,4.5766,4.5777,4.5787,4.5819,4.5831,4.5688,4.5688,4.5688,0,4.549,4.5532,4.5511,4.5546,4.5557,4.552,4.5562,4.5568,4.5581,4.559,4.5565,4.5612,4.5613,4.5666,4.5689,4.5696,4.5707,4.5681,4.5778,4.5787,4.5796,4.5826,4.5838,4.5692,4.5691,4.5691,4.5691,0,4.5591,4.562,4.5653,4.5668,4.5683,4.5721,4.5705,4.5722,4.5706,4.5699,4.5742,4.5742,4.5761,4.5773,4.5756,4.5824,4.581,4.5782,4.5738,4.5813,4.5842,4.5853,4.5697,4.5696,4.5695,4.5694,0,0,4.5713,4.5718,4.573,4.5737,4.5743,4.5765,4.5801,4.5821,4.5836,4.5846,4.5876,4.5909,4.5884,4.5893,4.5877,4.5904,4.5976,4.5873,4.5872,4.5892,4.605,4.6072,4.6085,4.5959,4.5961,4.5963,4.605,0,4.5799,4.5862,4.5845,4.5907,4.5934,4.59,4.5932,4.5939,4.5933,4.5955,4.5948,4.5972,4.5937,4.5942,4.5968,4.5962,4.6007,4.5955,4.5986,4.5987,4.5986,4.61,4.6123,4.6205,4.6061,4.6063,4.6064,0,4.5907,4.5923,4.5989,4.5992,4.6002,4.6031,4.6048,4.6069,4.6076,4.607,4.6081,4.606,4.6094,4.6051,4.6098,4.6063,4.6075,4.6074,4.6077,4.6079,4.603,4.6106,4.623,4.6243,4.6081,4.608,4.6079,0,4.5991,4.6029,4.6073,4.608,4.6084,4.6105,4.6107,4.6112,4.6125,4.6139,4.6148,4.6166,4.6176,4.619,4.6174,4.6144,4.6224,4.6179,4.622,4.6221,4.6239,4.6238,4.6367,4.6246,4.6246,4.6246,4.6245,0,4.6088,4.613,4.6111,4.6138,4.6184,4.6163,4.6209,4.6207,4.6212,4.6238,4.6209,4.6233,4.6211,4.6233,4.6221,4.6262,4.6267,4.6263,4.6259,4.6266,4.6267,4.6273,4.6267,4.6249,4.6248,4.6247,4.6247,0,4.6189,4.6178,4.6224,4.6225,4.6226,4.6259,4.6259,4.6284,4.6277,4.631,4.6317,4.6305,4.6331,4.6316,4.6341,4.6333,4.6387,4.6376,4.6386,4.6383,4.6425,4.6421,4.6563,4.6581,4.6448,4.6449,4.645,0,4.6252,4.6283,4.6288,4.6304,4.6308,4.6334,4.6348,4.6329,4.6344,4.6355,4.6379,4.6402,4.6419,4.6461,4.6455,4.6474,4.6462,4.6511,4.6465,4.6471,4.6464,4.6462,4.6465,4.652,4.6522,4.6523,4.6524,0,4.6365,4.6358,4.638,4.64,4.6418,4.6432,4.6444,4.6458,4.644,4.6458,4.6484,4.6498,4.6525,4.6548,4.6564,4.6566,4.6542,4.6539,4.6549,4.6556,4.6561,4.656,4.6411,4.6535,4.6534,4.6533,4.6533,4.6532,4.6449,4.6476,4.6484,4.6508,4.6516,4.6528,4.6552,4.6548,4.657,4.6591,4.6578,4.6609,4.6615,4.6635,4.664,4.6663,4.6644,4.6659,4.6663,4.6667,4.6673,4.6558,4.6666,4.6666,4.6665,4.6665,4.6665,0,4.6561,4.6565,4.6588,4.6607,4.6626,4.6603,4.6615,4.6633,4.6661,4.6669,4.6687,4.6718,4.674,4.6736,4.6756,4.6776,4.6765,4.6782,4.678,4.6781,4.6689,4.6678,4.679,4.679,4.679,4.679,4.679,4.679,4.6622,4.6666,4.6661,4.6708,4.6711,4.6742,4.6751,4.6761,4.6768,4.6804,4.6823,4.682,4.6823,4.6844,4.6863,4.6861,4.687,4.6891,4.6885,4.6799,4.6787,4.6775,4.6765,4.6893,4.6893,4.6974,4.6975,4.6976]}]]